Regional Weather Roundup
Issued by NWS

Home | Current Version | Previous Version | Graphics & Text | Print | Product List | Glossary On
Versions: 1 2 3 4 5 6 7 8 9 10 11 12 13 14 15 16 17 18 19 20 21 22 23 24 25 26 27 28 29 30 31 32 33 34 35 36 37 38 39 40 41 42 43 44 45 46 47 48 49 50
000
ASUS45 KSLC 240310
RWRUT

UTAH REGIONAL WEATHER ROUNDUP
NATIONAL WEATHER SERVICE SALT LAKE CITY UT
800 PM MST SUN NOV 23 2014

UTZ001>011-023>025-240400-

NORTHERN UTAH

CITY           SKY/WX    TMP DP  RH WIND       PRES   REMARKS
BRIGHAM CITY   MOCLDY    35  23  60 S3        30.22F
HILL AFB       CLOUDY    33  23  66 S9        30.22S WCI  25
LOGAN          CLOUDY    35  23  61 NW3       30.20F
OGDEN          MOCLDY    33  24  69 S6        30.22S WCI  28
PROVO AIRPORT  MOCLDY    30  25  80 VRB3      30.26S
SALT LAKE CITY MOCLDY    37  23  56 S7        30.24R WCI  32
VERNAL         CLEAR     29   9  43 CALM      30.09R
WENDOVER       CLEAR     34  19  55 SW5       30.25S WCI  30
HEBER CITY     CLOUDY    30  21  69 CALM      30.21S
WEST JORDAN    CLOUDY    34  28  80 SW5       30.25R WCI  30

$$

UTZ012>022-026-027-240400-

SOUTHERN/CENTRAL UTAH

CITY           SKY/WX    TMP DP  RH WIND       PRES   REMARKS
BLANDING       CLEAR     31   6  35 N5        30.18S WCI  26
BRYCE CANYON   PTCLDY    20  10  65 W15       30.20F WCI   6
CEDAR CITY     PTCLDY    27  15  61 N7        30.24R WCI  19
DELTA          PTCLDY    29  22  73 SE5       30.27S WCI  24
MILFORD        PTCLDY    28  20  71 W9        30.26S WCI  19
MOAB/CYNLANDS  CLEAR     32  12  43 NW10      30.12S WCI  24
PRICE          PTCLDY    30  12  47 NW7G17    30.13S WCI  23
ST GEORGE      PTCLDY    46  10  23 W5        30.24S
KANAB          CLEAR     30   5  34 CALM      30.26R

$$

REGIONAL REPORTS     COLORADO/ARIZONA

CITY           SKY/WX    TMP DP  RH WIND       PRES   REMARKS
CRAIG, CO      PTCLDY    21  12  68 W10       30.06R WCI  10
GRAND JUNCTION CLEAR     25  18  74 CALM      30.10R
RIFLE          PTCLDY    22  16  78 VRB3      30.09R
MONTROSE       PTCLDY    27  14  58 W8        30.10R WCI  19
CORTEZ         CLEAR     26  18  71 CALM      30.11R
PAGE, AZ       NOT AVBL
GRAND CANYON   CLEAR     21  -7  28 CALM      30.21R
KINGMAN        CLEAR     39   6  25 SE10      30.22R WCI  32
FLAGSTAFF      CLEAR     24  -9  23 CALM      30.18R

$$

REGIONAL REPORTS    NEVADA/IDAHO/WYOMING

CITY           SKY/WX    TMP DP  RH WIND       PRES   REMARKS
LAS VEGAS, NV  PTCLDY    54  11  18 W8        30.18R
ELY            PTCLDY    25  25 100 W5        30.27S WCI  19
ELKO           CLEAR     31  24  75 SW7       30.27S WCI  24
POCATELLO, ID  PTCLDY    34  27  75 SW21      30.15F WCI  22
BURLEY         PTCLDY    32  25  75 SW9       30.18F WCI  24
EVANSTON, WY   FLURRIES  22  18  85 SW12      30.14R WCI  10
ROCK SPRINGS   MOCLDY    22  13  68 W29G35    30.05R WCI   4

$$



USA.gov is the U.S. government's official web portal to all federal, state and local government web resources and services.